Weather History for Fayetteville, NC

Change the Weather History Date:

Thursday, April 25, 2013

  Actual Average Record
Temperature  
Mean Temperature 64 °F 65 °F  
Max Temperature 74 °F 77 °F 94 °F (1925)
Min Temperature 54 °F 53 °F 36 °F (1969)
Degree Days  
Heating Degree Days 1 3  
Month to date heating degree days 117 125  
Since 1 July heating degree days 2719 2694  
Cooling Degree Days 0 3  
Month to date cooling degree days 59 50  
Year to date cooling degree days 67 66  
Growing Degree Days 15 (Base 50)    
Moisture  
Dew Point 50 °F    
Average Humidity 62    
Maximum Humidity 86    
Minimum Humidity 38    
Precipitation  
Precipitation 0.00 in 0.07 in 2.40 in (1941)
Month to date precipitation 2.01 2.50  
Year to date precipitation 9.32 12.11  
Sea Level Pressure  
Sea Level Pressure 30.15 in    
Wind  
Wind Speed 7 mph (NNE)    
Max Wind Speed 16 mph    
Max Gust Speed 22 mph    
Visibility 10 miles    
Events      
T = Trace of Precipitation, MM = Missing Value Source: NWS Daily Summary

Daily Weather History Graph

Daily Weather History Graph

Search for Another Location

Airport:

Trip Planner

Search our weather history database for the weather conditions in past years. The results will help you decide how hot, cold, wet, or windy it might be!

Date:

Astronomy

Apr. 25, 2013 Rise Set
Actual Time 6:31 AM EDT 7:56 PM EDT
Civil Twilight 6:04 AM EDT 8:23 PM EDT
Nautical Twilight 5:32 AM EDT 8:55 PM EDT
Astronomical Twilight 4:59 AM EDT 9:28 PM EDT
Moon 8:06 PM EDT (4/25) 6:12 AM EDT (4/25)
Length of Visible Light 14h 18m
Length of Day
13h 25m
Full, 100% of the Moon is Illuminated
Apr 25
Full
Apr 25
Full
May 2
Last Quarter
May 9
New
May 18
First Quarter

Hourly Weather History & Observations

Time (EDT) Temp. Dew Point Humidity Pressure Visibility Wind Dir Wind Speed Gust Speed Precip Events Conditions
12:53 AM 66.0 °F 57.0 °F 73% 30.03 in 10.0 mi SSW 9.2 mph - N/A   Clear
1:53 AM 64.0 °F 57.0 °F 78% 30.03 in 10.0 mi SSW 9.2 mph - N/A   Clear
2:53 AM 64.0 °F 57.0 °F 78% 30.03 in 10.0 mi South 6.9 mph - N/A   Mostly Cloudy
3:53 AM 62.1 °F 55.9 °F 80% 30.04 in 10.0 mi SSW 5.8 mph - N/A   Mostly Cloudy
4:53 AM 63.0 °F 57.0 °F 81% 30.06 in 10.0 mi West 3.5 mph - N/A   Overcast
5:53 AM 64.0 °F 57.9 °F 80% 30.09 in 10.0 mi West 4.6 mph - N/A   Overcast
6:53 AM 63.0 °F 54.0 °F 72% 30.13 in 10.0 mi North 12.7 mph - N/A   Overcast
7:53 AM 62.1 °F 48.9 °F 62% 30.16 in 10.0 mi North 15.0 mph 20.7 mph N/A   Overcast
8:53 AM 62.1 °F 46.0 °F 56% 30.18 in 10.0 mi North 13.8 mph - N/A   Mostly Cloudy
9:53 AM 64.0 °F 46.0 °F 52% 30.19 in 10.0 mi North 12.7 mph - N/A   Clear
10:53 AM 66.0 °F 45.0 °F 47% 30.20 in 10.0 mi North 13.8 mph 18.4 mph N/A   Mostly Cloudy
11:53 AM 66.9 °F 44.1 °F 44% 30.19 in 10.0 mi NE 8.1 mph - N/A   Mostly Cloudy
12:53 PM 68.0 °F 44.1 °F 42% 30.19 in 10.0 mi NW 6.9 mph - N/A   Overcast
1:53 PM 71.1 °F 45.0 °F 39% 30.19 in 10.0 mi North 10.4 mph - N/A   Overcast
2:53 PM 72.0 °F 46.0 °F 40% 30.19 in 10.0 mi NE 6.9 mph - N/A   Partly Cloudy
3:53 PM 73.0 °F 46.9 °F 39% 30.18 in 10.0 mi Variable 6.9 mph - N/A   Mostly Cloudy
4:53 PM 71.1 °F 48.0 °F 44% 30.16 in 10.0 mi NE 6.9 mph - N/A   Scattered Clouds
5:53 PM 73.9 °F 46.0 °F 37% 30.16 in 10.0 mi North 5.8 mph - N/A   Clear
6:53 PM 69.1 °F 48.9 °F 49% 30.17 in 10.0 mi ENE 3.5 mph - N/A   Clear
7:53 PM 66.9 °F 48.9 °F 52% 30.18 in 10.0 mi ENE 3.5 mph - N/A   Partly Cloudy
8:53 PM 64.0 °F 48.9 °F 58% 30.21 in 10.0 mi Calm Calm - N/A   Clear
9:53 PM 60.1 °F 53.1 °F 78% 30.24 in 10.0 mi ESE 3.5 mph - N/A   Clear
10:53 PM 57.0 °F 53.1 °F 87% 30.25 in 10.0 mi North 3.5 mph - N/A   Clear
11:53 PM 57.0 °F 54.0 °F 89% 30.25 in 10.0 mi SE 4.6 mph - N/A   Clear